Showing default

YAOGAN-30 L, 43171

Orbit data source: Space-Track

YAOGAN-30 L, 43171 is a payload satellite owned by PLA SSF (CN) in LEO that was launched on Thu, 25 Jan 2018 UTC via a CHANG ZHENG 2C launch vehicle from the Xichang Space Center, China (XSC). Payload-class satellites include a variety of spacecraft equipped with specific instruments for various scientific and technological missions. These include communications satellites like Starlink; space stations such as the ISS; scientific satellites like the Hubble; Earth observation satellites from companies like Planet Labs, Umbra, and HawkEye 360; GPS; miniature CubeSats for education and research; and military/defense satellites.

Loading next visibility...
Identifier
43171, 2018-011C
Orbit
LEO
Country
Flag of CNCN / PRC
Related business
Manufacturer
SECM
Mission
Operational Defense Sigint
Bus & Motor
Unknown
Mass
~500 kg wet, ~500 kg dry
Launch date (UTC)
2018-01-25 (8 years ago)
Launch vehicle
CHANG ZHENG 2C
Launch site
Xichang Space Center, China (XSC)
Object type
Payload
Rocket body
Debris
Shape & HBR
Box + 2 Pan, 0.5 m
Radar Cross Section
0.446 m², Large (>1 m²)

Expand to show TLE details & history
Last TLE update: 7 hours ago

TLE from 7 hours ago
0 YAOGAN-30 L
1 43171U 18011C   26035.85017821  .00004350  00000-0  32869-3 0  9998
2 43171  34.9937 236.8336 0001927 263.4806  96.5683 15.01843154438309
Epoch: 2026-02-04T20:24Z
TLE epoch observation values (Epoch: 2026-02-04T20:24:15.397Z)
Latitude
0.00001°
Longitude
155.75862°
Altitude
560.283 km
Speed
7.583 km/s
True Right ascension
15h 47m 20s
True Declination
0° 00' 00"
Sunlit
Object was in daylight at epoch
Visualization orbit readout
Latitude
Unknown
Longitude
Unknown
Altitude
Unknown
Speed
Unknown
Apparent Right ascension
Unknown
Apparent Declination
Unknown
Sunlit
N/A
Visualization observer readout
Local Sidereal Time
05:38:42
Azimuth
Unknown
Elevation
Unknown
Doppler factor
Unknown
Orbital elements
Apogee altitude
565.772 km
Perigee altitude
563.096 km
Semi-major axis
6,942.571 km
Eccentricity
0.00019
Inclination
34.9937°
RAAN
236.8336°
Arg. of periapsis
263.4806°
True anomaly
96.59024°
Mean anomaly
96.5683°
Eccentric anomaly
96.57927°
Mean motion
3.752 °/min
Orbital period
95.95 mins
BSTAR
0.00032869
Loading maneuver chart data...
Computing Atmospheric mass density...
Loading historical data...
Loading historical data...
Loading historical data...
Loading historical data...
Loading historical data...
Loading historical data...
Loading historical data...
Other satellites on launch #11 in the year 2018 (2018-01-25 UTC)

Documentation

Showing up to 5 results
|